Location: Oberkirch
(48.5323°N, 8.0787°E)
Time: 01:44:32
(UTC+00:00)

A-11 Canister half - Visible Passes

Search period start: 07 February 2026 00:00
Search period end: 17 February 2026 00:00
Orbit: 1512 x 1688 km, 47.2° (Epoch: 6 February)

Date Brightness Start Highest point End Pass type
(mag) Time Alt. Az. Time Alt. Az. Time Alt. Az.
7 Feb 10.5 01:21:46 25° E 01:21:46 25° E 01:24:59 10° E visible
7 Feb 8.8 03:19:57 79° SW 03:20:20 80° S 03:29:44 10° ESE visible
7 Feb 9.3 05:18:08 20° W 05:24:39 48° SW 05:33:22 10° SE visible
8 Feb 10.8 00:59:58 18° E 00:59:58 18° E 01:01:56 10° E visible
8 Feb 8.9 02:58:09 75° SE 02:58:09 75° SE 03:06:43 10° ESE visible
8 Feb 9.3 04:56:21 26° W 05:01:40 50° SSW 05:10:29 10° SE visible
9 Feb 11.0 00:38:13 13° E 00:38:13 13° E 00:38:54 10° E visible
9 Feb 9.2 02:36:24 60° ESE 02:36:24 60° ESE 02:43:42 10° ESE visible
9 Feb 9.2 04:34:35 34° W 04:38:40 52° SSW 04:47:35 10° SE visible
10 Feb 9.6 02:14:41 46° ESE 02:14:41 46° ESE 02:20:40 10° E visible
10 Feb 9.1 04:12:53 43° WSW 04:15:41 55° SSW 04:24:40 10° SE visible
10 Feb 10.2 06:12:30 10° W 06:18:54 21° SW 06:25:11 10° S visible
11 Feb 10.0 01:53:01 34° ESE 01:53:01 34° ESE 01:57:39 10° E visible
11 Feb 9.0 03:51:13 52° WSW 03:52:41 57° SSW 04:01:44 10° SE visible
11 Feb 10.1 05:49:25 10° W 05:55:59 22° SW 06:02:36 10° S visible
12 Feb 10.4 01:31:24 25° E 01:31:24 25° E 01:34:37 10° E visible
12 Feb 9.0 03:29:37 59° SSW 03:29:41 59° SSW 03:38:48 10° SE visible
12 Feb 10.0 05:27:49 15° W 05:33:03 24° SW 05:39:57 10° S visible
13 Feb 10.8 01:09:52 17° E 01:09:52 17° E 01:11:35 10° E visible
13 Feb 9.1 03:08:04 56° S 03:08:04 56° S 03:15:52 10° SE visible
13 Feb 9.9 05:06:17 20° W 05:10:08 25° SW 05:17:17 10° S visible
13 Feb 10.8 20:21:44 10° SSW 20:22:44 13° S 20:22:44 13° S visible
14 Feb 11.1 00:48:23 11° E 00:48:23 11° E 00:48:34 10° E visible
14 Feb 9.5 02:46:36 46° SSE 02:46:36 46° SSE 02:52:54 10° SE visible
14 Feb 9.8 04:44:48 24° WSW 04:47:12 27° SW 04:54:35 10° S visible
14 Feb 10.5 19:58:57 10° S 20:01:46 19° S 20:01:46 19° S visible
15 Feb 9.9 02:25:12 34° SE 02:25:12 34° SE 02:29:56 10° SE visible
15 Feb 9.7 04:23:25 29° SW 04:24:16 29° SW 04:31:52 10° S visible
15 Feb 10.2 19:36:10 10° S 19:40:48 23° SSE 19:40:48 23° SSE visible
15 Feb 10.9 21:38:03 10° SW 21:39:04 14° SW 21:39:04 14° SW visible
16 Feb 10.4 02:03:52 24° SE 02:03:52 24° SE 02:06:58 10° ESE visible
16 Feb 9.7 04:02:06 30° SW 04:02:06 30° SW 04:09:08 10° SSE visible
16 Feb 10.0 19:13:25 10° S 19:19:50 26° SE 19:19:50 26° SE visible
16 Feb 10.5 21:15:02 10° SW 21:18:04 22° SW 21:18:04 22° SW visible
